Regional Weather Roundup
Issued by NWS Sterling, VA

Home | Current Version | Previous Version | Graphics & Text | Print | Product List | Glossary On
Versions: 1 2 3 4 5 6 7 8 9 10 11 12 13 14 15 16 17 18 19 20 21 22 23 24 25 26 27
000
ASUS41 KLWX 270211
RWRLWX

REGIONAL WEATHER ROUNDUP
NATIONAL WEATHER SERVICE BALTIMORE MD/WASHINGTON DC
1000 PM EDT TUE JUL 26 2016

Note: "FAIR" indicates few or no clouds below 12,000 feet
with no significant weather and/or obstructions to visibility.
 TC=TEMPERATURE CELSIUS

 * =Non NWS site. Station does not report precipitation (e.g. rain,
    snow, etc.), thunder, or fog.

DCZ001-MDZ009-015-VAZ040>042-051-053>054-270300-
WASHINGTON METRO

CITY           SKY/WX    TMP DP  RH WIND       PRES   REMARKS
WASHINGTON NAT MOCLDY    89  69  51 CALM      29.94R HX  93
DULLES         MOCLDY    82  70  66 S5        29.95S
ANDREWS AFB    CLOUDY    83  72  69 SE2       29.94R
FT BELVOIR     FAIR      81  71  71 CALM      29.94S
QUANTICO       FAIR      82  77  84 NW9       29.96R HX  90
COLLEGE PARK*  FAIR      79  72  78 CALM      29.93S
LEESBURG*      FAIR      81  77  89 SW3       29.96S
MANASSAS*      PTCLDY    79  75  89 CALM      29.95R
GAITHERSBURG*  CLOUDY    75  70  83 CALM      29.99S

$$

MDZ006>007-011-014-270300-
BALTIMORE METRO

CITY           SKY/WX    TMP DP  RH WIND       PRES   REMARKS
BWI AIRPORT    MOCLDY    83  70  64 CALM      29.92S
MD SCIENCE CTR   N/A     88  68  51 MISG      29.93R HX  91
MARTIN STATE   PTCLDY    81  77  89 CALM      29.94R
ANNAPOLIS      MOCLDY    83  75  77 CALM      29.93R HX  90
FORT MEADE*    PTCLDY    75  73  94 CALM      29.96S

$$

MDZ012-015-019>023-270300-
MARYLAND EASTERN SHORE

CITY           SKY/WX    TMP DP  RH WIND       PRES   REMARKS
OCEAN CITY     CLOUDY    79  75  87 VRB3      29.93S
SALISBURY      CLOUDY    79  73  82 CALM      29.93S
BAY BRIDGE AP* MOCLDY    84  73  70 SW3       29.93R HX  91
CAMBRIDGE*     PTCLDY    79  77  94 CALM      29.93R

$$

MDZ017>025-270300-
SOUTHERN MARYLAND

CITY           SKY/WX    TMP DP  RH WIND       PRES   REMARKS
PATUXENT RIVER CLOUDY    82  76  81 SW5       29.93S
ST INIGOES     LGT RAIN  85  77  77 S8        29.94R HX  95
LEONARDTOWN*     N/A     81  73  78 MISG        N/A

$$

MDZ003>005-270300-
NORTH CENTRAL MARYLAND

CITY           SKY/WX    TMP DP  RH WIND       PRES   REMARKS
FREDERICK*     CLOUDY    79  72  78 CALM      29.97S
HAGERSTOWN APT MOCLDY    86  62  44 CALM      29.96R

$$

MDZ501>502-270300-
WESTERN MARYLAND

CITY           SKY/WX    TMP DP  RH WIND       PRES   REMARKS
OAKLAND*       CLOUDY    70  66  88 CALM      30.12R
CUMBERLAND*    CLOUDY    82  64  54 CALM      30.03R

$$

VAZ025>031-270300-
SHENANDOAH VALLEY

CITY           SKY/WX    TMP DP  RH WIND       PRES   REMARKS
WINCHESTER*    FAIR      81  70  69 SW6       29.98S
FRONT ROYAL*   FAIR      77  72  83 S6        29.98S
LURAY*         FAIR      73  73 100 CALM      30.00F
NEW MARKET*    FAIR     N/A N/A N/A CALM      29.99F
STAUNTON*      LGT RAIN  73  72  98 CALM      30.04F
WAYNESBORO*    FAIR      73  72  96 S5        30.04F

$$

WVZ021-048>050-054>055-270300-
EASTERN WEST VIRGINIA PANHANDLE

CITY           SKY/WX    TMP DP  RH WIND       PRES   REMARKS
MARTINSBURG    FAIR      81  69  67 CALM      29.96R
PETERSBURG*    FAIR      78  74  85 CALM      30.00S

$$

VAZ036>039-050-270300-
CENTRAL FOOTHILLS

CITY           SKY/WX    TMP DP  RH WIND       PRES   REMARKS
CHARLOTTESVILL LGT RAIN  79  73  82 CALM      29.99R
CULPEPER*      FAIR      76  74  92 CALM      29.98S
ORANGE*          N/A     73  73 100 CALM      29.98F
GORDONSVILLE*  MOCLDY    76  73  91 CALM      29.97S
WARRENTON*     FAIR      78  72  83 SW6       29.97R

$$

VAZ055>057-270300-
NORTH AND CENTRAL PIEDMONT

CITY           SKY/WX    TMP DP  RH WIND       PRES   REMARKS
FREDERICKSBRG* FAIR      80  80 100 W3        29.96R
STAFFORD*      FAIR      79  75  88 CALM      30.00R

$$

NCZ024-NYZ072-PAZ021-071-VAZ022-071-270300-
OTHER REGIONAL OBSERVATIONS

CITY           SKY/WX    TMP DP  RH WIND       PRES   REMARKS
NEW YORK CITY  PTCLDY    83  60  45 VRB5      29.94R
PHILADELPHIA   MOCLDY    85  72  65 SW9       29.93R HX  91
PITTSBURGH     MOCLDY    78  57  48 NE3       30.01R
ROANOKE        FAIR      82  72  71 N10       30.02R
RICHMOND       CLOUDY    77  75  93 N3        29.96R
RALEIGH        CLOUDY    78  73  84 W12       29.99R THUNDER

$$

ANZ530>537-270300-
MARINE OBSERVATIONS

STATION/POSITION TIME  TEMP    WIND        PRES
                       AIR SEA DIR/SP/G
                 (UTC) (F)     (DEG/KT/KT) (MB)
THOMAS PT LIGHT  0200   86 85  200/  4/  4 1014.9R
BALT KEY BRIDGE  0148          210/  4/  5   N/A
COVE POINT       0148          220/  6/  7   N/A
LEWISETTA        0148          230/  7/  9   N/A
SOLOMONS ISLAND  0148          210/  7/  8   N/A
PINEY POINT      0148          220/  8/ 10   N/A

$$





USA.gov is the U.S. government's official web portal to all federal, state and local government web resources and services.